Terminal Aerodrome Forecast
Issued by NWS

Home | Current Version | Previous Version | Text Only | Print | Product List | Glossary On
Versions: 1 2 3 4 5 6 7 8 9 10 11 12 13 14 15 16 17 18
117
FTUS43 KDLH 232334
TAFHYR
TAF
KHYR 232334Z 2400/2424 15010KT P6SM SCT020 BKN070
      TEMPO 2400/2401 BKN020
     FM240300 16004KT P6SM BKN020
     FM240500 17004KT 2SM BR SCT005 OVC015
      TEMPO 2406/2410 1SM -SHRA BR
     FM241600 26008G14KT P6SM SCT020=

USA.gov is the U.S. government's official web portal to all federal, state and local government web resources and services.